User: anonymous   Login
Location: Sungai Anya
(2.6167°N, 114.0500°E)
Time: 06:03:05
(UTC+00:00)
Language:

H-2A R/B - Orbit

View from above orbital plane
View from above orbital plane
View from above satellite
View from above satellite

Ground track
Ground track

The orbit data is extracted from the following two-line orbital elements,

1 27601U 02056E   22021.62577530  .00000021  00000-0  22327-4 0  9994
2 27601  98.1801  36.6064 0071660 340.2289 126.2283 14.32029558998153
Epoch (UTC): 21 January 2022 15:01:06
Eccentricity: 0.0071660
inclination: 98.1801°
perigee height: 733 km
apogee height: 836 km
right ascension of ascending node: 36.6064°
argument of perigee: 340.2289°
revolutions per day: 14.32029558
mean anomaly at epoch: 126.2283°
orbit number at epoch: 99815

The dashed part of the orbit path shows where the satellite is in the earth's shadow,  

DLR